Weather History for KECP - December, 2012

Change the Weather History Date:

Saturday, December 29, 2012

  Actual Average Record
Temperature  
Mean Temperature 52 °F -  
Max Temperature 68 °F - - ()
Min Temperature 36 °F - - ()
Degree Days  
Heating Degree Days 13    
Cooling Degree Days 0    
Growing Degree Days 2 (Base 50)    
Moisture  
Dew Point 48 °F    
Average Humidity 81    
Maximum Humidity 100    
Minimum Humidity 61    
Precipitation  
Precipitation 0.31 in - - ()
Month to date precipitation  
Year to date precipitation  
Sea Level Pressure  
Sea Level Pressure 29.99 in    
Wind  
Wind Speed 12 mph (WNW)    
Max Wind Speed 23 mph    
Max Gust Speed 30 mph    
Visibility 9 miles    
Events Rain    
T = Trace of Precipitation, MM = Missing Value Source: NWS Daily Summary

Daily Weather History Graph

Daily Weather History Graph

Search for Another Location

Airport or City:

Trip Planner

Search our weather history database for the weather conditions in past years. The results will help you decide how hot, cold, wet, or windy it might be!

Date:

Astronomy

Dec. 29, 2012 Rise Set
Actual Time 7:39 AM EST 5:51 PM EST
Civil Twilight 7:12 AM EST 6:18 PM EST
Nautical Twilight 6:42 AM EST 6:48 PM EST
Astronomical Twilight 6:13 AM EST 7:17 PM EST
Moon 7:17 PM EST (12/29) 8:18 AM EST (12/29)
Length of Visible Light 11h 05m
Length of Day
10h 12m
Full, 98% of the Moon is Illuminated
Dec 29
Full
Jan 4
Last Quarter
Jan 11
New
Jan 18
First Quarter
Jan 26
Full

Hourly Weather History & Observations

Time (EST) Temp. Windchill Dew Point Humidity Pressure Visibility Wind Dir Wind Speed Gust Speed Precip Events Conditions
12:53 AM 63.0 °F - 62.1 °F 97% 29.78 in 2.5 mi SE 13.8 mph 19.6 mph 0.23 in Rain Heavy Rain
1:03 AM 64.4 °F - 62.6 °F 94% 29.75 in 1.8 mi SSE 16.1 mph - 0.15 in Rain Heavy Rain
1:09 AM 64.4 °F - 62.6 °F 94% 29.74 in 3.0 mi SSE 11.5 mph 20.7 mph 0.18 in Rain Heavy Rain
1:33 AM 64.4 °F - 62.6 °F 94% 29.72 in 1.8 mi SSE 5.8 mph - 0.35 in Rain Heavy Rain
1:50 AM 66.2 °F - 64.4 °F 94% 29.76 in 3.0 mi NW 12.7 mph 29.9 mph 0.45 in Rain Rain
1:51 AM 64.9 °F - 63.0 °F 93% 29.80 in 3.0 mi NW 10.4 mph 29.9 mph 0.45 in Rain Rain
1:57 AM 64.4 °F - 62.6 °F 94% 29.77 in 5.0 mi NW 9.2 mph - 0.00 in Rain Light Rain
2:13 AM 62.6 °F - 62.6 °F 100% 29.77 in 10.0 mi NW 8.1 mph - 0.00 in   Overcast
2:53 AM 63.0 °F - 61.0 °F 93% 29.82 in 10.0 mi WNW 4.6 mph - 0.00 in   Overcast
3:19 AM 64.4 °F - 60.8 °F 88% 29.80 in 10.0 mi West 8.1 mph - N/A   Overcast
3:45 AM 64.4 °F - 60.8 °F 88% 29.80 in 10.0 mi WNW 13.8 mph - N/A   Overcast
3:53 AM 64.0 °F - 60.1 °F 87% 29.84 in 10.0 mi WNW 13.8 mph - N/A   Overcast
4:17 AM 62.6 °F - 59.0 °F 88% 29.82 in 10.0 mi WNW 12.7 mph - N/A   Overcast
4:53 AM 60.1 °F - 57.0 °F 90% 29.88 in 10.0 mi WNW 17.3 mph - N/A   Overcast
5:35 AM 57.2 °F - 53.6 °F 88% 29.87 in 10.0 mi WNW 16.1 mph 26.5 mph N/A   Overcast
5:53 AM 57.0 °F - 52.0 °F 83% 29.92 in 10.0 mi WNW 17.3 mph - N/A   Overcast
6:21 AM 53.6 °F - 48.2 °F 82% 29.92 in 10.0 mi West 13.8 mph - N/A   Overcast
6:53 AM 53.1 °F - 46.9 °F 80% 29.98 in 10.0 mi West 12.7 mph - N/A   Overcast
7:53 AM 53.1 °F - 46.0 °F 77% 30.02 in 10.0 mi WNW 15.0 mph - N/A   Mostly Cloudy
8:53 AM 50.0 °F - 43.0 °F 77% 30.06 in 10.0 mi NW 20.7 mph - N/A   Overcast
9:53 AM 48.9 °F - 41.0 °F 74% 30.09 in 10.0 mi WNW 13.8 mph - N/A   Overcast
10:53 AM 50.0 °F - 41.0 °F 71% 30.12 in 10.0 mi NW 18.4 mph - N/A   Overcast
11:53 AM 50.0 °F - 39.9 °F 68% 30.12 in 10.0 mi NW 15.0 mph 24.2 mph N/A   Mostly Cloudy
12:53 PM 48.9 °F - 39.9 °F 71% 30.12 in 10.0 mi WNW 15.0 mph - N/A   Overcast
1:53 PM 48.0 °F - 39.0 °F 71% 30.11 in 10.0 mi NW 16.1 mph - N/A   Overcast
2:53 PM 48.0 °F - 37.0 °F 66% 30.12 in 10.0 mi NW 12.7 mph - N/A   Scattered Clouds
3:53 PM 48.0 °F - 37.0 °F 66% 30.14 in 10.0 mi NW 15.0 mph - N/A   Scattered Clouds
4:53 PM 48.0 °F - 36.0 °F 63% 30.17 in 10.0 mi NW 11.5 mph - N/A   Partly Cloudy
5:53 PM 46.4 °F 42.4 °F 35.6 °F 66% 30.16 in 10.0 mi NW 8.1 mph - N/A   Clear
6:53 PM 43.0 °F 38.8 °F 35.1 °F 74% 30.22 in 10.0 mi NNW 6.9 mph - N/A   Clear
7:53 PM 42.1 °F 36.1 °F 32.0 °F 67% 30.26 in 10.0 mi NNW 10.4 mph - N/A   Clear
8:53 PM 41.0 °F 34.7 °F 30.0 °F 65% 30.29 in 10.0 mi NW 10.4 mph - N/A   Clear
9:53 PM 39.0 °F 33.4 °F 30.9 °F 73% 30.32 in 10.0 mi NW 8.1 mph - N/A   Clear
10:53 PM 39.0 °F 32.8 °F 28.9 °F 67% 30.34 in 10.0 mi WNW 9.2 mph - N/A   Clear
11:53 PM 37.0 °F 33.3 °F 28.9 °F 73% 30.36 in 10.0 mi NW 4.6 mph - N/A   Scattered Clouds